Cairo, IL

8:59 PM CDT on March 28, 2017 (GMT -0500)
Cairo Regional

Weather History for KCIR - April, 2013

Change the Weather History Date:

Sunday, April 14, 2013

  Actual Average Record
Temperature  
Mean Temperature 62 °F -  
Max Temperature 77 °F 67 °F 86 °F (2006)
Min Temperature 46 °F 49 °F 32 °F (1950)
Degree Days  
Heating Degree Days 4    
Growing Degree Days 12 (Base 50)    
Moisture  
Dew Point 47 °F    
Average Humidity 58    
Maximum Humidity 84    
Minimum Humidity 33    
Precipitation  
Precipitation 0.00 in - - ()
Sea Level Pressure  
Sea Level Pressure 29.83 in    
Wind  
Wind Speed 7 mph (SE)    
Max Wind Speed 26 mph    
Max Gust Speed 31 mph    
Visibility 10 miles    
Events      
Averages and records for this station are not official NWS values.
T = Trace of Precipitation, MM = Missing Value Source: NWS Daily Summary

Daily Weather History Graph

Daily Weather History Graph

Search for Another Location

Airport or City:

Trip Planner

Search our weather history database for the weather conditions in past years. The results will help you decide how hot, cold, wet, or windy it might be!

Date:

Astronomy

Apr. 14, 2013 Rise Set
Actual Time 6:23 AM CDT 7:31 PM CDT
Civil Twilight 5:56 AM CDT 7:57 PM CDT
Nautical Twilight 5:25 AM CDT 8:29 PM CDT
Astronomical Twilight 4:51 AM CDT 9:03 PM CDT
Moon 9:04 AM CDT (4/14) 11:40 PM CDT (4/14)
Length of Visible Light 14h 01m
Length of Day
13h 07m
Waxing Crescent, 17% of the Moon is Illuminated
Apr 14
Waxing Crescent
Apr 18
First Quarter
Apr 25
Full
May 2
Last Quarter
May 9
New

Hourly Weather History & Observations

Time (CDT) Temp. Dew Point Humidity Pressure Visibility Wind Dir Wind Speed Gust Speed Precip Events Conditions
12:15 AM 49.8 °F 45.1 °F 84% 29.95 in 10.0 mi Calm Calm - N/A   Clear
12:35 AM 50.9 °F 46.0 °F 83% 29.94 in 10.0 mi East 3.5 mph - N/A   Clear
12:55 AM 49.6 °F 44.6 °F 83% 29.94 in 10.0 mi Calm Calm - N/A   Clear
1:15 AM 50.0 °F 45.0 °F 83% 29.93 in 10.0 mi Calm Calm - N/A   Clear
1:35 AM 49.5 °F 44.1 °F 82% 29.93 in 10.0 mi Calm Calm - N/A   Clear
1:55 AM 49.1 °F 44.1 °F 83% 29.93 in 10.0 mi Calm Calm - N/A   Clear
2:15 AM 48.7 °F 43.5 °F 82% 29.92 in 10.0 mi Calm Calm - N/A   Clear
2:35 AM 48.0 °F 43.3 °F 84% 29.91 in 10.0 mi Calm Calm - N/A   Clear
2:55 AM 48.2 °F 43.3 °F 83% 29.90 in 10.0 mi ENE 4.6 mph - N/A   Clear
3:15 AM 48.4 °F 43.0 °F 82% 29.90 in 10.0 mi Calm Calm - N/A   Clear
3:35 AM 47.7 °F 42.3 °F 82% 29.89 in 10.0 mi NE 3.5 mph - N/A   Clear
3:55 AM 47.7 °F 42.3 °F 82% 29.88 in 10.0 mi NE 3.5 mph - N/A   Clear
4:15 AM 47.5 °F 42.1 °F 82% 29.87 in 10.0 mi NE 5.8 mph - N/A   Clear
4:35 AM 47.5 °F 42.1 °F 82% 29.87 in 10.0 mi East 3.5 mph - N/A   Clear
4:55 AM 48.7 °F 43.3 °F 82% 29.88 in 10.0 mi East 4.6 mph - N/A   Clear
5:15 AM 48.2 °F 42.8 °F 82% 29.88 in 10.0 mi ENE 3.5 mph - N/A   Clear
5:35 AM 47.3 °F 41.9 °F 82% 29.88 in 10.0 mi Calm Calm - N/A   Clear
5:55 AM 46.9 °F 41.5 °F 81% 29.87 in 10.0 mi ENE 3.5 mph - N/A   Clear
6:15 AM 47.5 °F 42.3 °F 82% 29.88 in 10.0 mi Calm Calm - N/A   Clear
6:35 AM 49.3 °F 43.2 °F 79% 29.88 in 10.0 mi ESE 5.8 mph - N/A   Clear
6:55 AM 50.2 °F 43.7 °F 78% 29.88 in 10.0 mi SE 4.6 mph - N/A   Clear
7:15 AM 52.7 °F 43.9 °F 72% 29.89 in 10.0 mi SE 4.6 mph - N/A   Clear
7:35 AM 55.0 °F 46.4 °F 73% 29.89 in 10.0 mi SE 3.5 mph - N/A   Clear
7:55 AM 57.0 °F 46.8 °F 69% 29.88 in 10.0 mi SE 5.8 mph - N/A   Clear
8:15 AM 58.3 °F 47.1 °F 66% 29.88 in 10.0 mi SE 4.6 mph - N/A   Clear
8:35 AM 60.1 °F 46.9 °F 62% 29.88 in 10.0 mi SE 6.9 mph - N/A   Clear
8:55 AM 62.1 °F 47.5 °F 59% 29.87 in 10.0 mi SE 5.8 mph - N/A   Clear
9:15 AM 63.7 °F 47.1 °F 55% 29.87 in 10.0 mi SE 8.1 mph - N/A   Clear
9:35 AM 65.5 °F 46.4 °F 50% 29.86 in 10.0 mi SE 9.2 mph - N/A   Clear
9:55 AM 67.6 °F 45.7 °F 45% 29.85 in 10.0 mi SSE 13.8 mph - N/A   Clear
10:15 AM 68.7 °F 44.8 °F 42% 29.84 in 10.0 mi SSE 9.2 mph - N/A   Clear
10:35 AM 69.1 °F 43.7 °F 40% 29.83 in 10.0 mi SSE 10.4 mph - N/A   Clear
10:55 AM 71.1 °F 44.2 °F 38% 29.83 in 10.0 mi SSE 10.4 mph - N/A   Clear
11:15 AM 71.8 °F 45.1 °F 38% 29.85 in 10.0 mi SSE 15.0 mph - N/A   Clear
11:35 AM 73.8 °F 46.4 °F 38% 29.84 in 10.0 mi SSE 16.1 mph - N/A   Clear
11:55 AM 73.8 °F 44.1 °F 34% 29.83 in 10.0 mi SSE 17.3 mph 21.9 mph N/A   Clear
12:15 PM 73.6 °F 45.7 °F 37% 29.82 in 10.0 mi South 12.7 mph 23.0 mph N/A   Clear
12:35 PM 74.1 °F 46.4 °F 37% 29.81 in 10.0 mi South 15.0 mph 21.9 mph N/A   Clear
12:55 PM 74.5 °F 47.3 °F 38% 29.81 in 10.0 mi SSE 12.7 mph 19.6 mph N/A   Clear
1:15 PM 75.2 °F 46.9 °F 37% 29.80 in 10.0 mi SSE 13.8 mph 21.9 mph N/A   Clear
1:35 PM 75.4 °F 45.9 °F 35% 29.80 in 10.0 mi SSE 18.4 mph 26.5 mph N/A   Clear
1:55 PM 76.1 °F 45.0 °F 33% 29.79 in 10.0 mi South 21.9 mph 28.8 mph N/A   Clear
2:15 PM 77.2 °F 46.4 °F 34% 29.78 in 10.0 mi SSE 18.4 mph 26.5 mph N/A   Clear
2:35 PM 76.5 °F 46.4 °F 34% 29.78 in 10.0 mi SSE 20.7 mph 28.8 mph N/A   Clear
2:55 PM 76.6 °F 47.3 °F 35% 29.77 in 10.0 mi SSE 20.7 mph 27.6 mph N/A   Clear
3:15 PM 77.0 °F 48.7 °F 37% 29.77 in 10.0 mi SE 21.9 mph 27.6 mph N/A   Clear
3:35 PM 76.6 °F 51.4 °F 41% 29.77 in 10.0 mi South 20.7 mph 27.6 mph N/A   Clear
3:55 PM 75.9 °F 52.7 °F 44% 29.76 in 10.0 mi SSE 23.0 mph 28.8 mph N/A   Clear
4:15 PM 76.5 °F 53.4 °F 45% 29.76 in 10.0 mi SSE 19.6 mph 25.3 mph N/A   Scattered Clouds
4:35 PM 76.1 °F 53.4 °F 45% 29.76 in 10.0 mi SSE 17.3 mph 24.2 mph N/A   Scattered Clouds
4:55 PM 75.4 °F 51.8 °F 44% 29.76 in 10.0 mi SSE 19.6 mph 25.3 mph N/A   Scattered Clouds
5:15 PM 75.6 °F 51.4 °F 43% 29.76 in 10.0 mi SSE 16.1 mph 21.9 mph N/A   Clear
5:35 PM 74.3 °F 48.2 °F 40% 29.76 in 10.0 mi SSE 20.7 mph 26.5 mph N/A   Scattered Clouds
5:55 PM 73.8 °F 46.8 °F 38% 29.75 in 10.0 mi SSE 26.5 mph 31.1 mph N/A   Clear
6:15 PM 72.9 °F 47.3 °F 40% 29.76 in 10.0 mi SSE 16.1 mph 25.3 mph N/A   Clear
6:35 PM 71.8 °F 48.2 °F 43% 29.76 in 10.0 mi SSE 15.0 mph 25.3 mph N/A   Clear
6:55 PM 71.6 °F 47.3 °F 42% 29.75 in 10.0 mi SSE 17.3 mph 25.3 mph N/A   Clear
7:15 PM 70.2 °F 47.5 °F 44% 29.76 in 10.0 mi SSE 15.0 mph 20.7 mph N/A   Clear
7:35 PM 68.9 °F 48.2 °F 48% 29.77 in 10.0 mi SSE 11.5 mph - N/A   Clear
7:55 PM 67.6 °F 49.1 °F 51% 29.77 in 10.0 mi SSE 10.4 mph - N/A   Clear
8:15 PM 67.3 °F 49.1 °F 52% 29.78 in 10.0 mi SSE 9.2 mph - N/A   Clear
8:35 PM 65.3 °F 49.5 °F 57% 29.78 in 10.0 mi SE 11.5 mph - N/A   Clear
8:55 PM 66.2 °F 49.1 °F 54% 29.80 in 10.0 mi SSE 11.5 mph 17.3 mph N/A   Clear
9:15 PM 64.9 °F 49.1 °F 56% 29.80 in 10.0 mi SE 9.2 mph - N/A   Clear
9:35 PM 63.7 °F 49.3 °F 59% 29.79 in 10.0 mi SE 9.2 mph - N/A   Clear
9:55 PM 64.4 °F 49.5 °F 58% 29.80 in 10.0 mi SSE 13.8 mph - N/A   Clear
10:15 PM 63.7 °F 49.3 °F 59% 29.80 in 10.0 mi SE 11.5 mph 16.1 mph N/A   Clear
10:35 PM 63.1 °F 49.5 °F 61% 29.80 in 10.0 mi SE 10.4 mph - N/A   Clear
10:55 PM 62.6 °F 49.6 °F 63% 29.81 in 10.0 mi SE 10.4 mph - N/A   Scattered Clouds
11:15 PM 63.5 °F 50.2 °F 62% 29.82 in 10.0 mi SSE 10.4 mph - N/A   Mostly Cloudy
11:35 PM 63.7 °F 50.2 °F 61% 29.82 in 10.0 mi SSE 9.2 mph - N/A   Overcast
11:55 PM 63.7 °F 50.4 °F 62% 29.82 in 10.0 mi SSE 10.4 mph 16.1 mph N/A   Overcast